RH
43 36 20 12 6 5 4 4 4 4 6 5 4 3 3 4 6 13 19 49 81 92 94 100 100 100 98 98 99 99 100 100 97 99 100 100 100 100 97 97 98 86 97
43 32 21 12 5 4 4 4 4 5 7 8 5 4 4 4 5 7 10 12 20 53 91 94 100 100 99 98 98 99 100 99 100 100 100 100 100 100 100 100 98 100 100
43 32 20 9 5 4 4 4 4 7 8 11 7 4 4 4 5 6 9 12 15 24 40 90 96 98 100 97 98 98 99 100 100 100 100 100 100 100 100 100 100 98 93
42 30 15 6 4 4 5 4 6 8 10 11 9 5 5 5 6 7 8 10 11 13 15 20 79 100 99 98 97 97 98 100 99 99 99 100 100 100 100 99 100 100 100
40 24 9 5 4 5 6 5 6 7 10 12 10 6 6 6 6 8 7 8 8 10 10 11 15 37 97 100 97 97 98 98 98 98 97 98 98 99 99 100 99 100 100
35 16 7 5 5 6 6 5 5 7 9 12 9 6 6 7 7 10 10 7 7 8 9 10 12 13 12 15 52 87 96 97 97 97 97 96 97 97 98 99 99 98 96
32 15 7 5 6 8 6 5 5 5 9 10 8 7 6 8 10 12 14 11 8 8 9 9 9 12 12 12 13 9 11 19 25 36 42 38 35 55 64 36 45 86 92
32 21 7 6 7 10 8 6 7 7 10 12 13 11 10 13 15 15 17 16 10 9 10 11 9 9 10 12 10 9 8 9 14 16 17 22 21 20 19 26 22 13 16
35 20 9 8 11 15 12 13 19 24 16 13 16 19 20 20 24 23 24 20 14 11 10 10 10 10 11 13 8 8 9 12 13 13 14 16 15 16 17 13 13 21 10
38 15 10 12 16 19 24 30 36 39 27 20 19 21 22 34 46 30 26 23 16 13 12 9 8 8 9 8 8 9 8 13 12 10 8 8 7 7 6 6 7 6 8
30 16 15 17 19 27 36 44 55 60 55 34 17 16 23 28 48 22 24 26 19 15 12 11 10 8 8 7 7 8 10 13 9 8 7 7 7 6 7 7 7 7 8
28 20 21 21 23 32 42 53 64 73 72 56 28 16 25 32 30 34 16 17 23 17 13 13 11 10 9 9 9 10 11 10 9 8 8 8 9 10 12 13 13 13 13
28 26 27 28 31 42 50 60 73 77 79 73 47 18 18 27 32 25 20 19 19 19 14 13 12 12 11 11 10 11 10 9 9 8 9 11 13 15 16 14 14 15 14
32 31 30 30 35 47 66 86 84 85 85 80 67 28 14 20 19 23 26 23 20 20 18 15 13 13 12 12 12 11 11 11 11 11 13 14 15 13 12 13 13 13 12
42 37 36 36 38 47 64 83 88 96 100 97 77 32 17 23 29 29 21 20 19 18 18 17 16 15 14 14 13 13 14 14 14 15 15 15 16 17 17 18 17 16 15
51 45 42 34 38 52 63 73 94 100 99 93 62 20 24 43 70 70 29 20 18 19 23 18 15 15 16 15 15 16 16 16 17 18 18 18 19 20 22 25 26 26 26
58 52 45 41 42 49 67 78 82 94 97 91 47 18 49 91 100 80 26 22 22 22 23 19 17 16 16 17 18 18 17 18 19 20 21 22 24 27 29 33 35 35 35
63 62 49 34 34 50 64 69 72 66 44 30 29 42 81 86 98 59 32 27 27 23 22 20 19 19 20 20 20 20 20 21 22 22 24 26 27 28 32 37 39 39 39
71 63 39 29 37 55 70 71 35 40 59 53 48 45 78 76 54 39 34 30 25 23 23 22 21 22 22 22 22 22 22 23 24 26 28 30 32 33 36 42 49 53 52
74 49 31 30 43 67 83 76 44 85 89 83 79 66 59 52 50 48 38 37 30 25 24 22 23 24 24 24 25 25 26 27 29 31 33 34 37 39 41 47 56 60 63
58 40 35 41 54 69 73 71 65 97 95 93 92 89 88 84 75 62 46 42 34 30 26 26 25 26 26 27 28 29 29 29 30 33 35 38 41 44 46 51 62 72 75
51 45 42 44 54 74 84 93 96 99 100 100 97 97 93 92 73 58 51 46 39 32 29 28 28 29 30 31 32 32 32 31 33 37 40 42 44 47 50 55 67 79 86
65 65 54 51 64 85 96 97 100 99 99 100 97 96 91 86 65 69 54 50 43 46 33 31 32 33 34 35 36 35 35 36 37 38 43 46 48 50 53 58 68 82 91
65 50 51 69 85 93 92 94 96 96 95 95 95 95 94 80 69 64 84 79 95 56 39 35 35 36 38 40 40 40 40 40 42 42 43 47 52 54 57 61 67 76 85
89 86 83 86 90 94 95 98 97 95 93 94 90 88 78 81 84 91 92 94 77 55 45 40 40 40 42 44 45 45 45 45 46 45 47 51 55 58 59 63 67 72 80
93 93 94 95 96 97 100 98 92 95 94 93 73 71 93 95 96 96 92 96 77 55 49 45 43 44 47 48 48 50 50 51 49 49 52 56 58 60 62 64 69 75 81
Wind_Speed
9 8 7 7 8 9 9 9 9 10 10 11 14 16 17 18 19 18 18 19 21 23 25 24 18 13 8 4 6 6 7 15 13 10 4 6 8 8 8 6 8 4 3
9 8 7 7 8 8 8 8 7 7 7 9 12 14 15 17 18 18 19 20 19 22 26 28 27 18 12 6 1 3 6 8 10 13 8 11 12 13 9 10 6 12 12
10 9 7 7 7 6 7 7 6 5 6 8 10 12 15 16 17 18 18 19 19 20 22 26 30 26 20 13 8 5 4 6 7 15 16 16 15 17 13 11 11 10 8
11 9 8 7 7 6 5 4 4 3 4 6 8 10 12 14 17 18 17 18 19 21 22 24 25 28 27 21 15 13 12 13 11 15 17 16 16 17 18 18 15 14 12
12 9 8 8 7 5 3 2 1 2 4 6 7 8 10 12 16 18 18 17 18 20 22 25 27 26 23 25 23 20 17 19 21 22 22 19 17 14 14 15 15 14 13
12 11 10 9 8 5 4 2 0 2 4 5 5 7 9 12 14 16 17 17 17 19 21 23 24 26 27 26 23 23 23 22 22 21 22 22 20 19 15 10 9 8 7
13 14 12 11 9 7 5 3 1 2 4 4 5 6 8 11 13 14 16 16 16 17 19 21 22 25 25 25 25 23 26 27 26 23 23 22 18 16 15 16 15 11 11
15 14 13 11 10 9 7 5 2 1 2 3 5 7 7 9 11 13 14 14 14 16 18 19 20 21 23 22 21 22 24 25 25 23 23 22 20 17 11 10 12 18 14
16 15 14 12 11 10 8 6 4 2 2 2 4 6 7 8 9 11 12 13 14 16 17 19 19 21 21 20 19 22 24 26 24 21 19 17 16 16 16 13 12 5 10
16 15 14 14 12 11 10 8 6 4 2 2 3 4 6 7 7 8 9 11 12 15 16 17 17 18 17 17 18 19 22 23 19 17 17 17 17 17 17 17 18 18 13
15 16 15 14 13 12 11 9 6 4 2 2 1 2 2 4 5 6 7 8 11 12 13 15 16 15 16 16 17 19 21 17 15 15 16 17 18 18 19 20 20 19 19
16 16 15 15 15 15 13 11 9 5 2 1 0 1 1 2 3 4 7 8 9 10 12 13 14 14 14 13 15 16 14 12 13 14 15 18 19 20 20 19 19 20 19
18 17 16 16 16 16 15 13 11 8 5 3 2 1 1 1 0 3 5 7 7 8 9 11 11 12 12 11 12 12 11 12 13 14 17 18 18 17 15 14 14 14 14
18 18 17 17 17 17 16 14 13 11 9 6 5 4 4 3 2 3 3 3 5 6 7 8 9 10 10 10 10 10 11 12 14 15 16 15 13 12 13 14 13 13 13
18 18 18 17 17 18 17 16 13 10 8 8 7 6 6 4 3 2 1 1 3 4 6 7 8 8 8 9 10 10 11 11 12 13 12 13 13 14 15 16 16 16 16
20 21 19 18 18 18 17 17 15 13 13 11 9 8 7 6 1 2 4 1 2 3 4 5 5 5 6 8 8 10 10 11 12 13 13 13 13 13 14 15 16 17 18
21 21 20 20 20 20 19 18 17 16 14 12 10 10 9 7 8 8 3 1 2 3 3 4 5 6 7 8 9 10 11 12 12 12 12 12 12 12 13 14 15 16 17
21 21 21 21 21 20 18 16 16 14 13 13 13 11 10 12 10 7 6 3 3 4 4 4 5 6 7 8 9 9 10 11 11 12 13 12 12 12 12 13 14 15 16
23 23 22 19 20 18 16 15 15 13 11 11 11 12 10 9 8 3 3 4 4 5 5 5 6 6 7 8 8 9 10 11 11 12 12 12 12 11 12 12 12 13 14
23 23 21 19 19 20 18 17 18 15 13 12 11 10 11 11 6 5 4 4 5 5 6 6 6 7 8 9 9 10 11 11 11 11 12 12 12 12 12 12 12 12 13
22 22 20 20 20 19 18 19 18 16 14 13 12 11 10 9 9 9 7 7 7 6 7 7 7 8 8 9 9 10 10 11 12 12 13 13 13 12 12 12 12 12 13
18 20 21 20 19 19 18 17 17 16 14 14 14 14 13 11 10 9 8 8 8 7 8 8 8 8 8 9 10 10 11 11 12 12 13 13 13 13 13 12 12 13 13
14 18 20 19 18 17 17 16 17 16 15 15 15 15 14 11 10 9 9 8 8 8 9 9 9 9 9 10 10 11 11 11 12 13 13 13 13 13 13 13 13 13 14
11 15 18 18 17 18 16 16 16 15 13 14 14 14 13 12 11 10 10 10 10 9 10 10 10 10 10 10 11 12 12 12 14 14 15 14 14 14 13 14 14 15 17
11 13 15 16 17 18 17 16 16 14 13 13 13 14 13 12 12 12 11 11 10 11 11 10 10 11 11 11 12 12 12 13 14 15 15 15 15 15 15 15 16 16 17
12 12 13 14 15 15 16 15 15 13 13 13 13 12 12 12 12 12 12 12 11 12 12 12 11 11 11 12 12 12 13 13 14 15 15 15 15 15 16 17 17 18 18
Wind_Direction
270 279 286 306 318 325 335 347 353 10 11 12 15 19 22 22 23 20 16 17 16 23 29 32 24 14 355 291 246 226 198 205 215 239 210 202 210 151 125 115 120 27 95
262 265 278 299 311 320 335 341 349 10 4 16 18 20 26 28 29 25 25 20 17 24 34 38 38 31 30 28 114 201 234 211 216 219 170 137 154 156 147 124 107 85 70
254 261 275 288 300 311 322 330 345 8 6 16 20 20 28 30 35 29 28 31 25 29 35 39 44 42 42 44 55 92 139 193 167 156 136 136 129 124 124 126 132 119 107
250 254 262 277 283 290 303 321 344 1 17 22 23 22 32 34 38 37 33 34 37 38 41 41 46 48 48 52 61 75 97 114 126 134 127 135 135 124 123 117 119 121 114
244 251 250 258 264 264 268 292 339 11 31 32 29 29 36 39 40 40 35 38 39 41 45 48 47 49 57 62 67 73 84 94 101 102 100 104 105 118 128 125 116 111 107
242 240 239 241 242 235 222 222 308 28 43 44 37 37 35 42 39 40 37 35 42 46 47 50 53 53 55 58 68 75 78 81 85 88 89 85 80 79 97 150 161 153 96
233 229 228 227 226 216 208 205 164 47 59 58 53 46 39 45 42 38 36 35 41 51 50 48 52 55 54 56 60 63 73 72 71 78 80 76 75 69 73 81 83 93 107
225 221 220 219 217 213 208 208 184 119 81 57 59 51 43 51 45 43 39 35 38 47 56 54 54 54 54 51 56 63 64 69 66 63 65 68 68 70 71 80 74 71 74
222 221 217 216 212 208 208 205 200 179 157 82 62 50 41 45 50 45 41 41 45 48 49 54 52 53 53 52 50 53 57 58 59 60 64 68 67 66 63 64 66 82 69
217 215 213 212 209 209 209 206 195 172 144 94 58 44 39 39 44 52 47 43 46 50 53 54 54 57 57 55 50 52 55 56 51 53 57 60 61 62 62 59 60 57 59
210 209 209 208 209 209 210 205 193 176 150 114 67 31 34 27 45 57 62 51 52 46 50 52 55 49 47 47 47 49 52 52 47 45 47 50 49 46 45 42 42 41 42
206 207 208 207 208 208 207 207 208 205 203 182 102 19 70 70 62 50 41 49 52 42 47 47 46 45 46 48 50 53 53 46 45 45 46 46 44 43 39 34 32 31 30
204 204 204 205 206 208 211 214 218 222 227 248 263 259 195 164 74 29 20 28 34 37 42 40 40 40 43 43 49 50 42 41 40 41 44 44 41 40 36 34 31 29 25
204 203 205 209 210 211 214 222 230 234 235 244 257 260 249 229 280 323 347 9 22 27 31 30 31 32 31 36 41 40 37 36 34 37 38 37 34 34 29 29 26 24 20
204 208 210 211 215 217 218 222 228 228 241 255 262 252 241 243 273 291 357 33 23 21 28 20 17 17 17 22 28 30 31 31 31 35 30 25 23 21 22 20 18 15 15
210 212 214 217 215 214 213 212 210 215 229 241 240 221 221 222 223 304 327 22 23 24 20 358 356 5 9 15 18 22 22 23 24 22 18 15 15 14 14 15 17 19 21
219 221 221 218 218 216 214 218 219 216 219 222 219 217 191 192 214 260 287 299 4 359 353 340 348 357 356 5 11 10 10 11 13 10 10 9 7 6 6 8 12 15 19
224 228 230 225 219 216 218 222 223 224 212 203 198 197 202 201 211 246 288 313 321 324 324 336 343 338 352 358 358 360 1 1 0 360 1 360 358 355 355 357 360 4 7
227 227 229 223 217 215 216 214 211 207 207 206 206 211 202 237 197 237 312 300 299 299 310 321 326 336 343 344 346 349 351 351 352 352 351 349 349 346 343 344 349 353 355
224 226 227 218 210 209 210 211 208 213 215 217 216 213 222 241 250 279 298 295 290 291 302 309 319 326 333 336 339 341 341 342 342 340 340 340 340 338 335 332 334 338 344
220 218 216 212 210 211 214 213 216 222 224 229 230 230 240 248 255 269 284 290 297 300 300 305 310 316 321 326 329 331 330 330 334 336 335 333 331 327 327 325 322 325 326
216 215 213 211 210 210 212 216 222 227 232 234 230 232 238 247 254 263 273 285 292 295 297 301 302 309 315 319 323 323 324 325 327 330 329 327 325 321 322 320 316 315 313
207 210 210 210 209 208 214 221 225 230 234 233 229 235 240 246 247 254 267 278 285 291 293 296 298 304 308 313 314 315 319 321 324 328 329 326 324 320 315 313 310 307 305
197 199 204 202 210 211 217 222 227 228 229 229 233 235 240 247 246 251 263 270 281 284 288 295 294 298 306 311 312 315 318 322 323 325 326 326 323 319 313 310 309 307 307
192 194 199 207 209 212 218 223 229 225 225 231 234 234 237 240 244 255 261 272 278 282 286 293 293 299 305 305 307 311 316 320 320 323 324 324 323 320 316 313 309 307 306
198 198 202 208 213 215 222 226 222 225 228 234 237 231 240 245 249 253 262 270 274 279 285 291 292 298 298 300 305 310 314 314 318 322 323 322 322 320 318 314 310 307 305